Location: Pel�-Koumbol�
(14.9505°N, 3.0798°W)
Time: 06:46:23
(UTC+00:00)

STARLINK-1037 - Pass Details

Date: 17 February 2020
Orbit: 548 x 550 km, 53.0° (Epoch: 08 April)

Event Time Altitude Azimuth Distance (km) Brightness Sun altitude
Exits shadow 06:04:25 - 302° (WNW) 1,916 5.8 -8.3°
Reaches altitude 10° 06:04:42 10° 301° (WNW) 1,816 5.7 -8.3°
Maximum altitude 06:08:24 32° 237° (WSW) 942 4.5 -7.4°
Drops below altitude 10° 06:12:07 10° 172° (S) 1,814 6.5 -6.5°
Sets 06:14:31 0° 162° (SSE) 2,707 7.6 -5.9°
